User: anonymous   Login
Location: UBC Liquid-Mirror Observatory
(49.2876°N, 122.5728°W)
Time: 19:46:00
(UTC-07:00)
Language:

KITSAT 1 - Orbit

View from above orbital plane
View from above orbital plane
View from above satellite
View from above satellite

Ground track
Ground track

The orbit data is extracted from the following two-line orbital elements,

1 22077U 92052B   17113.94677022 -.00000065 +00000-0 -11194-4 0  9999
2 22077 066.0842 080.1678 0006412 337.4997 054.7218 12.86517956160049
Epoch (UTC): 23 April 2017 22:43:20
Eccentricity: 0.0006412
inclination: 66.0842°
perigee height: 1310 km
apogee height: 1320 km
right ascension of ascending node: 80.1678°
argument of perigee: 337.4997°
revolutions per day: 12.86517956
mean anomaly at epoch: 54.7218°
orbit number at epoch: 16004

The dashed part of the orbit path shows where the satellite is in the earth's shadow,  

DLR